Regional Weather Roundup
Issued by NWS

Home | Current Version | Previous Version | Text Only | Print | Product List | Glossary Off
Versions: 1 2 3 4 5 6 7 8 9 10 11 12 13 14 15 16 17 18 19 20 21 22 23 24 25 26 27 28 29 30 31 32 33 34 35 36 37 38 39 40 41 42 43 44 45 46 47 48 49 50

000
ASUS44 KMEG 302310
RWRTN
TENNESSEE HOURLY STATE WEATHER ROUNDUP
NATIONAL WEATHER SERVICE MEMPHIS TN
600 PM CDT THU MAR 30 2017

TNZ002-004-019-021-049-052-054-088>092-310000-
WEST TENNESSEE

CITY           SKY/WX    TMP DP  RH WIND       PRES   REMARKS
MEMPHIS INTL   MOSUNNY   68  47  46 W16G32    29.63R
NWS MEMPHIS      N/A     68 N/A N/A MISG        N/A
JACKSON        CLOUDY    66  61  84 SW20G28   29.60F
DYERSBURG      CLOUDY    66  50  56 W16G28    29.63R
BOLIVAR        CLOUDY    64  63  94 SW8       29.61S FOG
PARIS          CLOUDY    59  57  94 SW10      29.60R
HUNTINGDON     CLOUDY    63  59  88 SW15      29.60R FOG
SAVANNAH       MOSUNNY   73  54  49 S16G24    29.62S
$$

TNZ008-025-027-028-033-062-065-066-310000-
NORTH MIDDLE TENNESSEE

CITY           SKY/WX    TMP DP  RH WIND       PRES   REMARKS
NASHVILLE      CLOUDY    76  52  43 S15G22    29.63F
PORTLAND       MOSUNNY   75  55  50 S14G23    29.62S
CLARKSVILLE    CLOUDY    73  52  47 S16G28    29.58F
SMYRNA         CLOUDY    75  58  55 S9G17     29.64F
COOKEVILLE     PTSUNNY   75  54  46 SW17G24   29.67F
GALLATIN       CLOUDY    75  55  50 S7G21     29.66R
CROSSVILLE     PTSUNNY   72  52  49 S8G18     29.75R
$$

TNZ061-075-076-078-094-096-097-310000-
SOUTH MIDDLE TENNESSEE

CITY           SKY/WX    TMP DP  RH WIND       PRES   REMARKS
FAYETTEVILLE   CLOUDY    73  57  56 S12G21    29.67F
TULLAHOMA      CLOUDY    72  54  53 S5        29.67F
WINCHESTER     SUNNY     73  57  56 S16       29.67F
MCMINNVILLE    PTSUNNY   73  55  53 S7        29.68F
COLUMBIA       MOSUNNY   73  55  53 SW13      29.62F
SHELBYVILLE    PTSUNNY   73  57  56 S14       29.67F
$$

TNZ017-018-042-046-047-310000-
NORTHEAST TENNESSEE

CITY           SKY/WX    TMP DP  RH WIND       PRES   REMARKS
TRI CITIES     CLOUDY    69  53  56 S12       29.81R
ELIZABETHTON   CLOUDY    66  54  63 VRB6G13   29.85R
$$

TNZ012-013-036-069-073-074-310000-
CENTRAL EAST TENNESSEE

CITY           SKY/WX    TMP DP  RH WIND       PRES   REMARKS
KNOXVILLE      CLOUDY    77  49  37 S14G28    29.73R
OAK RIDGE      CLOUDY    79  48  33 S9        29.72F
DOWNTOWN KNOXV SUNNY     79  50  36 S12       29.73R
GATLINBURG     SUNNY     75  48  38 SW15      29.74S
MORRISTOWN     SUNNY     75  48  38 SW15      29.75R
JACKSBORO      CLOUDY    77  45  31 S20G30    29.74S
$$

TNZ083-085-099-310000-
SOUTHEAST TENNESSEE

CITY           SKY/WX    TMP DP  RH WIND       PRES   REMARKS
CHATTANOOGA    CLOUDY    78  54  43 S13G26    29.73S
$$

SKY/WX REPORTED AS FAIR MEANS FEW OR NO CLOUDS BELOW
12 THOUSAND FEET.




USA.gov is the U.S. government's official web portal to all federal, state and local government web resources and services.